Hourly Data Report for January 06, 2015

All times are specified in Local Standard Time (LST). Add 1 hour to adjust for Daylight Saving Time where and when it is observed.

OTTAWA INTL A
ONTARIO

45°19'00.000" N
75°40'00.000" W
114.90 m
6106001
71628
YOW

Download Data

Hourly Data (January 2015)
Hourly Data Report for January 6, 2015
Temp Definition
°C
Dew Point Temp Definition
°C
Rel Hum Definition
%
Wind Dir Definition
10's deg

Wind Spd Definition
km/h
Visibility Definition
km
Stn Press Definition
kPa
Hmdx Definition


Wind Chill Definition


Weather Definition


TIME
00:00 -20.3 -22.8 81 27 8 24.1 101.19   -27 LegendNANA
01:00 -20.4 -22.6 83 23 6 24.1 101.17   -25 Mainly Clear
02:00 -20.8 -23.1 82 23 8 24.1 101.17   -27 LegendNANA
03:00 -20.9 -22.9 84 28 5 24.1 101.14   -25 LegendNANA
04:00 -21.7 -23.7 84 20 6 24.1 101.11   -27 Clear
05:00 -22.3 -24.3 84 22 3 24.1 101.03   -25 LegendNANA
06:00 -21.8 -24.1 82 19 5 24.1 100.98   -26 LegendNANA
07:00 -20.8 -23.0 83 19 4 24.1 100.92   -24 Mostly Cloudy
08:00 -20.5 -23.0 81 12 8 16.1 100.89   -27 LegendNANA
09:00 -20.1 -22.4 82 11 4 16.1 100.87   -24 LegendNANA
10:00 -18.1 -20.3 83 5 8 16.1 100.79   -24 Mostly Cloudy
11:00 -15.7 -17.5 86 11 4 6.4 100.67   -19 Snow,Fog
12:00 -12.4 -14.7 83 19 10 16.1 100.48   -18 LegendNANA
13:00 -10.7 -14.3 75 18 13 16.1 100.34   -17 Mostly Cloudy
14:00 -9.6 -14.1 70 20 14 16.1 100.24   -16 LegendNANA
15:00 -10.0 -13.5 76 20 13 16.1 100.22   -16 LegendNANA
16:00 -10.2 -13.2 79 19 10 16.1 100.15   -15 Snow
17:00 -10.4 -13.4 79 19 12 16.1 100.07   -16 Snow
18:00 -10.5 -13.0 82 18 12 16.1 99.98   -17 Snow
19:00 -10.4 -12.8 83 20 12 16.1 99.90   -16 Cloudy
20:00 -10.2 -12.4 84 21 10 11.3 99.83   -15 Snow
21:00 -9.7 -12.2 82 22 17 9.7 99.76   -17 Snow
22:00 -9.9 -12.0 85 22 17 6.4 99.67   -17 Snow
23:00 -10.1 -12.2 85 21 16 6.4 99.56   -17 Snow

Notes on Data Quality.

Legend

  • E = Estimated
  • M = Missing
  • NA = Not Available
Date modified: